| time (UTC) | temp F | wind direction | speed MPH | gust MPH | rain 1hr in | rain 24hr in | rain mn in | humidity % | barometer mb |
| 20260507164130 | 60 | 16 | 9.0 | 15.0 | 0.00 | 0.00 | 0.00 | 84 | 1018.5 |
| 20260507163712 | 60 | 18 | 9.0 | 18.0 | 0.00 | 0.00 | 0.00 | 84 | 1018.5 |
| 20260507163211 | 60 | 350 | 8.0 | 19.0 | 0.00 | 0.00 | 0.00 | 85 | 1018.6 |
| 20260507162718 | 60 | 5 | 9.0 | 15.0 | 0.00 | 0.00 | 0.00 | 85 | 1018.0 |
| 20260507161642 | 59 | 355 | 7.0 | 18.0 | 0.00 | 0.00 | 0.00 | 86 | 1018.2 |
| 20260507161206 | 59 | 334 | 5.0 | 18.0 | 0.00 | 0.00 | 0.00 | 86 | 1018.1 |
| 20260507160659 | 59 | 38 | 7.0 | 18.0 | 0.00 | 0.00 | 0.00 | 86 | 1018.0 |
| 20260507160154 | 59 | 53 | 9.0 | 15.0 | 0.00 | 0.00 | 0.00 | 87 | 1018.0 |
| 20260507155645 | 59 | 22 | 4.0 | 21.0 | 0.00 | 0.00 | 0.00 | 87 | 1018.0 |
| 20260507155155 | 59 | 19 | 8.0 | 21.0 | 0.00 | 0.00 | 0.00 | 87 | 1018.1 |
| 20260507154643 | 59 | 327 | 6.0 | 15.0 | 0.00 | 0.00 | 0.00 | 87 | 1018.1 |
| 20260507154156 | 58 | 324 | 10.0 | 18.0 | 0.00 | 0.00 | 0.00 | 87 | 1018.0 |
| 20260507153710 | 58 | 5 | 5.0 | 21.0 | 0.00 | 0.00 | 0.00 | 87 | 1018.3 |
| 20260507153151 | 58 | 317 | 8.0 | 21.0 | 0.00 | 0.00 | 0.00 | 87 | 1018.0 |
| 20260507152647 | 58 | 304 | 8.0 | 18.0 | 0.00 | 0.00 | 0.00 | 87 | 1017.9 |
| 20260507152153 | 58 | 26 | 5.0 | 22.0 | 0.00 | 0.00 | 0.00 | 88 | 1017.9 |
| 20260507151709 | 58 | 355 | 8.0 | 22.0 | 0.00 | 0.00 | 0.00 | 88 | 1017.9 |
| 20260507151334 | 58 | 42 | 8.0 | 19.0 | 0.00 | 0.00 | 0.00 | 88 | 1018.0 |
| 20260507150626 | 58 | 22 | 9.0 | 21.0 | 0.00 | 0.00 | 0.00 | 88 | 1018.0 |
| 20260507150142 | 58 | 5 | 9.0 | 21.0 | 0.00 | 0.00 | 0.00 | 88 | 1018.0 |
| 20260507145705 | 58 | 355 | 10.0 | 20.0 | 0.00 | 0.00 | 0.00 | 89 | 1017.9 |
| 20260507145219 | 58 | 26 | 9.0 | 22.0 | 0.00 | 0.00 | 0.00 | 90 | 1018.0 |
| 20260507144628 | 58 | 346 | 10.0 | 21.0 | 0.00 | 0.00 | 0.00 | 90 | 1017.8 |
| 20260507144152 | 58 | 349 | 10.0 | 19.0 | 0.00 | 0.00 | 0.00 | 91 | 1017.6 |
| 20260507143237 | 58 | 14 | 5.0 | 18.0 | 0.00 | 0.00 | 0.00 | 92 | 1017.6 |
| 20260507142743 | 58 | 34 | 6.0 | 18.0 | 0.00 | 0.00 | 0.00 | 92 | 1018.0 |
| 20260507142136 | 58 | 360 | 5.0 | 16.0 | 0.00 | 0.00 | 0.00 | 92 | 1018.1 |
| 20260507141656 | 58 | 360 | 8.0 | 19.0 | 0.00 | 0.00 | 0.00 | 91 | 1018.2 |
| 20260507140630 | 58 | 360 | 11.0 | 19.0 | 0.00 | 0.00 | 0.00 | 91 | 1017.8 |
| 20260507140141 | 58 | 46 | 7.0 | 21.0 | 0.00 | 0.00 | 0.00 | 91 | 1017.8 |
| 20260507135704 | 58 | 5 | 8.0 | 15.0 | 0.00 | 0.00 | 0.00 | 91 | 1017.6 |
| 20260507135158 | 58 | 18 | 9.0 | 21.0 | 0.00 | 0.00 | 0.00 | 90 | 1017.9 |
| 20260507134720 | 58 | 25 | 10.0 | 21.0 | 0.00 | 0.00 | 0.00 | 90 | 1017.8 |
| 20260507134215 | 58 | 355 | 10.0 | 19.0 | 0.00 | 0.00 | 0.00 | 90 | 1018.1 |
| 20260507133707 | 59 | 355 | 10.0 | 19.0 | 0.00 | 0.00 | 0.00 | 90 | 1018.1 |
| 20260507133203 | 59 | 332 | 4.0 | 11.0 | 0.00 | 0.00 | 0.00 | 89 | 1018.2 |
| 20260507132702 | 59 | 22 | 6.0 | 13.0 | 0.00 | 0.00 | 0.00 | 89 | 1018.1 |
| 20260507132213 | 59 | 15 | 7.0 | 19.0 | 0.00 | 0.00 | 0.00 | 89 | 1017.8 |
| 20260507131649 | 59 | 336 | 7.0 | 19.0 | 0.00 | 0.00 | 0.00 | 88 | 1018.0 |
| 20260507131215 | 59 | 5 | 7.0 | 16.0 | 0.00 | 0.00 | 0.00 | 88 | 1017.6 |
| 20260507130709 | 59 | 323 | 5.0 | 16.0 | 0.00 | 0.00 | 0.00 | 88 | 1017.8 |
| 20260507130204 | 59 | 360 | 8.0 | 14.0 | 0.00 | 0.00 | 0.00 | 87 | 1017.5 |
| 20260507125703 | 59 | 338 | 7.0 | 19.0 | 0.00 | 0.00 | 0.00 | 87 | 1017.7 |
| 20260507125153 | 59 | 71 | 10.0 | 19.0 | 0.00 | 0.00 | 0.00 | 87 | 1017.7 |
| 20260507124643 | 59 | 13 | 8.0 | 19.0 | 0.00 | 0.00 | 0.00 | 87 | 1017.7 |
| 20260507124206 | 59 | 24 | 10.0 | 23.0 | 0.00 | 0.00 | 0.00 | 87 | 1017.6 |
| 20260507123721 | 59 | 350 | 11.0 | 23.0 | 0.00 | 0.00 | 0.00 | 87 | 1017.4 |
| 20260507123127 | 59 | 9 | 8.0 | 16.0 | 0.00 | 0.00 | 0.00 | 87 | 1017.3 |
| 20260507122650 | 59 | 345 | 5.0 | 13.0 | 0.00 | 0.00 | 0.00 | 87 | 1017.6 |
| 20260507122159 | 59 | 326 | 5.0 | 15.0 | 0.00 | 0.00 | 0.00 | 86 | 1017.3 |
| 20260507121200 | 59 | 17 | 2.0 | 16.0 | 0.00 | 0.00 | 0.00 | 86 | 1017.2 |
| 20260507120630 | 60 | 5 | 7.0 | 20.0 | 0.00 | 0.00 | 0.00 | 86 | 1016.9 |
| 20260507120132 | 60 | 49 | 9.0 | 20.0 | 0.00 | 0.00 | 0.00 | 86 | 1016.5 |
| 20260507115644 | 60 | 31 | 9.0 | 19.0 | 0.00 | 0.00 | 0.00 | 86 | 1016.3 |
| 20260507115156 | 60 | 31 | 6.0 | 19.0 | 0.00 | 0.00 | 0.00 | 85 | 1016.3 |
| 20260507114639 | 60 | 321 | 9.0 | 25.0 | 0.00 | 0.00 | 0.00 | 85 | 1016.3 |
| 20260507114134 | 60 | 327 | 9.0 | 25.0 | 0.00 | 0.00 | 0.00 | 85 | 1016.4 |
| 20260507113642 | 60 | 316 | 8.0 | 22.0 | 0.00 | 0.00 | 0.00 | 85 | 1016.2 |
| 20260507113138 | 60 | 355 | 11.0 | 19.0 | 0.00 | 0.00 | 0.00 | 84 | 1016.4 |
| 20260507112652 | 60 | 342 | 7.0 | 21.0 | 0.00 | 0.00 | 0.00 | 84 | 1016.2 |
| 20260507112141 | 60 | 344 | 7.0 | 21.0 | 0.00 | 0.00 | 0.00 | 84 | 1016.2 |
| 20260507102628 | 61 | 355 | 10.0 | 16.0 | 0.00 | 0.00 | 0.00 | 83 | 1015.8 |
| 20260507102140 | 61 | 355 | 4.0 | 11.0 | 0.00 | 0.00 | 0.00 | 84 | 1015.7 |
| 20260507101642 | 61 | 347 | 5.0 | 12.0 | 0.00 | 0.00 | 0.00 | 84 | 1015.6 |
| 20260507101134 | 61 | 355 | 5.0 | 16.0 | 0.00 | 0.00 | 0.00 | 84 | 1015.6 |
| 20260507100636 | 61 | 5 | 6.0 | 16.0 | 0.00 | 0.00 | 0.00 | 84 | 1015.7 |
| 20260507100156 | 61 | 346 | 7.0 | 14.0 | 0.00 | 0.00 | 0.00 | 83 | 1015.4 |
| 20260507095638 | 61 | 9 | 6.0 | 14.0 | 0.00 | 0.00 | 0.00 | 83 | 1015.5 |
| 20260507095149 | 61 | 10 | 5.0 | 13.0 | 0.00 | 0.00 | 0.00 | 83 | 1015.6 |
| 20260507094631 | 61 | 351 | 6.0 | 19.0 | 0.00 | 0.00 | 0.00 | 83 | 1015.6 |
| 20260507094146 | 61 | 26 | 8.0 | 19.0 | 0.00 | 0.00 | 0.00 | 83 | 1015.7 |
| 20260507093649 | 61 | 13 | 6.0 | 18.0 | 0.00 | 0.00 | 0.00 | 83 | 1015.4 |
| 20260507093139 | 61 | 22 | 8.0 | 18.0 | 0.00 | 0.00 | 0.00 | 83 | 1015.4 |
| 20260507092645 | 61 | 346 | 6.0 | 13.0 | 0.00 | 0.00 | 0.00 | 83 | 1015.5 |
| 20260507092136 | 61 | 5 | 7.0 | 13.0 | 0.00 | 0.00 | 0.00 | 83 | 1015.6 |
| 20260507091637 | 61 | 319 | 3.0 | 14.0 | 0.00 | 0.00 | 0.00 | 83 | 1015.6 |
| 20260507091149 | 61 | 324 | 8.0 | 14.0 | 0.00 | 0.00 | 0.00 | 83 | 1015.5 |
| 20260507090638 | 61 | 344 | 8.0 | 14.0 | 0.00 | 0.00 | 0.00 | 83 | 1015.4 |
| 20260507090137 | 61 | 360 | 3.0 | 11.0 | 0.00 | 0.00 | 0.00 | 83 | 1015.7 |
| 20260507085630 | 61 | 11 | 6.0 | 14.0 | 0.00 | 0.00 | 0.00 | 83 | 1015.5 |
| 20260507085130 | 61 | 360 | 7.0 | 14.0 | 0.00 | 0.00 | 0.00 | 83 | 1015.5 |
| 20260507084641 | 62 | 17 | 6.0 | 11.0 | 0.00 | 0.00 | 0.00 | 83 | 1015.6 |
| 20260507084152 | 62 | 25 | 5.0 | 13.0 | 0.00 | 0.00 | 0.00 | 83 | 1015.4 |
| 20260507083634 | 62 | 5 | 6.0 | 13.0 | 0.00 | 0.00 | 0.00 | 83 | 1015.4 |
| 20260507083144 | 62 | 5 | 5.0 | 11.0 | 0.00 | 0.00 | 0.00 | 83 | 1015.6 |
| 20260507082654 | 62 | 33 | 6.0 | 11.0 | 0.00 | 0.00 | 0.00 | 83 | 1015.6 |
| 20260507082138 | 62 | 23 | 5.0 | 11.0 | 0.00 | 0.00 | 0.00 | 83 | 1015.7 |
| 20260507081649 | 62 | 21 | 5.0 | 12.0 | 0.00 | 0.00 | 0.00 | 83 | 1015.6 |
| 20260507081219 | 62 | 35 | 5.0 | 10.0 | 0.00 | 0.00 | 0.00 | 83 | 1015.6 |
| 20260507080659 | 62 | 355 | 3.0 | 12.0 | 0.00 | 0.00 | 0.00 | 83 | 1015.4 |
| 20260507080131 | 62 | 14 | 7.0 | 12.0 | 0.00 | 0.00 | 0.00 | 83 | 1015.4 |
| 20260507075635 | 62 | 14 | 4.0 | 11.0 | 0.00 | 0.00 | 0.00 | 83 | 1015.4 |
| 20260507075130 | 62 | 22 | 6.0 | 11.0 | 0.00 | 0.00 | 0.00 | 83 | 1015.6 |
| 20260507074644 | 62 | 13 | 6.0 | 11.0 | 0.00 | 0.00 | 0.00 | 83 | 1015.5 |
| 20260507074146 | 62 | 355 | 5.0 | 8.0 | 0.00 | 0.00 | 0.00 | 83 | 1015.6 |
| 20260507073652 | 62 | 355 | 4.0 | 11.0 | 0.00 | 0.00 | 0.00 | 84 | 1015.6 |
| 20260507073133 | 62 | 360 | 6.0 | 11.0 | 0.00 | 0.00 | 0.00 | 84 | 1015.6 |
| 20260507072644 | 62 | 11 | 1.0 | 9.0 | 0.00 | 0.00 | 0.00 | 84 | 1015.8 |
| 20260507072215 | 62 | 338 | 4.0 | 11.0 | 0.00 | 0.00 | 0.00 | 84 | 1015.7 |
| 20260507071637 | 62 | 11 | 6.0 | 11.0 | 0.00 | 0.00 | 0.00 | 84 | 1015.6 |
| 20260507071148 | 62 | 355 | 4.0 | 10.0 | 0.00 | 0.00 | 0.00 | 84 | 1015.7 |
| 20260507070630 | 62 | 331 | 4.0 | 11.0 | 0.00 | 0.00 | 0.00 | 84 | 1015.7 |
| 20260507070142 | 62 | 30 | 5.0 | 11.0 | 0.00 | 0.00 | 0.00 | 84 | 1015.5 |
| 20260507065625 | 62 | 355 | 4.0 | 10.0 | 0.00 | 0.00 | 0.00 | 84 | 1015.5 |
| 20260507065151 | 62 | 30 | 5.0 | 10.0 | 0.00 | 0.00 | 0.00 | 84 | 1015.5 |
| 20260507064638 | 62 | 350 | 2.0 | 14.0 | 0.00 | 0.00 | 0.00 | 84 | 1015.7 |
| 20260507064126 | 62 | 16 | 5.0 | 14.0 | 0.00 | 0.00 | 0.00 | 83 | 1015.6 |
| 20260507063635 | 62 | 11 | 4.0 | 8.0 | 0.00 | 0.00 | 0.00 | 84 | 1015.6 |
| 20260507063133 | 62 | 41 | 4.0 | 11.0 | 0.00 | 0.00 | 0.00 | 84 | 1015.8 |
| 20260507062642 | 62 | 5 | 5.0 | 11.0 | 0.00 | 0.00 | 0.00 | 84 | 1015.7 |
| 20260507062130 | 62 | 19 | 5.0 | 13.0 | 0.00 | 0.00 | 0.00 | 84 | 1015.5 |
| 20260507061629 | 62 | 44 | 4.0 | 12.0 | 0.00 | 0.00 | 0.00 | 84 | 1015.5 |
| 20260507061129 | 62 | 17 | 6.0 | 13.0 | 0.00 | 0.00 | 0.00 | 84 | 1015.5 |
| 20260507060628 | 62 | 55 | 7.0 | 14.0 | 0.00 | 0.00 | 0.00 | 84 | 1015.5 |
| 20260507060135 | 62 | 59 | 5.0 | 13.0 | 0.00 | 0.00 | 0.00 | 84 | 1015.4 |
| 20260507055640 | 62 | 25 | 3.0 | 9.0 | 0.00 | 0.00 | 0.00 | 84 | 1015.5 |
| 20260507055138 | 62 | 34 | 1.0 | 11.0 | 0.00 | 0.00 | 0.00 | 84 | 1015.3 |
| 20260507054626 | 62 | 5 | 5.0 | 12.0 | 0.00 | 0.00 | 0.00 | 84 | 1015.2 |
| 20260507054132 | 62 | 335 | 5.0 | 12.0 | 0.00 | 0.00 | 0.00 | 84 | 1014.8 |
| 20260507053631 | 62 | 22 | 7.0 | 12.0 | 0.00 | 0.00 | 0.00 | 84 | 1014.8 |
| 20260507053139 | 63 | 350 | 5.0 | 11.0 | 0.00 | 0.00 | 0.00 | 84 | 1014.8 |
| 20260507052647 | 63 | 350 | 3.0 | 11.0 | 0.00 | 0.00 | 0.00 | 84 | 1014.7 |
| 20260507052134 | 63 | 26 | 4.0 | 14.0 | 0.00 | 0.00 | 0.00 | 84 | 1014.8 |
| 20260507051642 | 63 | 38 | 5.0 | 14.0 | 0.00 | 0.00 | 0.00 | 84 | 1014.7 |
| 20260507051141 | 63 | 5 | 6.0 | 12.0 | 0.00 | 0.00 | 0.00 | 84 | 1014.9 |
| 20260507050628 | 63 | 20 | 3.0 | 13.0 | 0.00 | 0.00 | 0.00 | 84 | 1015.1 |
| 20260507050137 | 63 | 26 | 6.0 | 13.0 | 0.00 | 0.00 | 0.00 | 84 | 1014.9 |
| 20260507045644 | 63 | 38 | 3.0 | 12.0 | 0.00 | 0.00 | 0.00 | 83 | 1014.9 |
| 20260507045146 | 63 | 25 | 6.0 | 12.0 | 0.00 | 0.00 | 0.00 | 84 | 1015.2 |
| 20260507044637 | 63 | 36 | 4.0 | 12.0 | 0.00 | 0.00 | 0.00 | 83 | 1015.2 |
| 20260507044207 | 63 | 355 | 5.0 | 12.0 | 0.00 | 0.00 | 0.00 | 83 | 1015.1 |
| 20260507043658 | 63 | 40 | 4.0 | 10.0 | 0.00 | 0.00 | 0.00 | 83 | 1015.0 |
| 20260507043159 | 63 | 339 | 5.0 | 13.0 | 0.00 | 0.00 | 0.00 | 84 | 1014.9 |
| 20260507042648 | 63 | 345 | 7.0 | 18.0 | 0.00 | 0.00 | 0.00 | 83 | 1014.8 |
| 20260507042135 | 63 | 341 | 10.0 | 18.0 | 0.00 | 0.00 | 0.00 | 83 | 1014.9 |
| 20260507041708 | 63 | 331 | 8.0 | 18.0 | 0.00 | 0.00 | 0.00 | 83 | 1014.9 |
| 20260507041200 | 63 | 337 | 7.0 | 12.0 | 0.00 | 0.00 | 0.00 | 84 | 1014.6 |
| 20260507040641 | 63 | 13 | 8.0 | 15.0 | 0.00 | 0.00 | 0.00 | 84 | 1014.6 |
| 20260507040152 | 63 | 36 | 8.0 | 15.0 | 0.00 | 0.00 | 0.00 | 84 | 1014.5 |
| 20260507035633 | 63 | 13 | 6.0 | 16.0 | 0.00 | 0.00 | 0.00 | 84 | 1014.4 |
| 20260507035159 | 63 | 19 | 8.0 | 18.0 | 0.00 | 0.00 | 0.00 | 84 | 1014.2 |
| 20260507034649 | 63 | 339 | 10.0 | 18.0 | 0.00 | 0.00 | 0.00 | 84 | 1014.2 |
| 20260507034131 | 63 | 13 | 8.0 | 15.0 | 0.00 | 0.00 | 0.00 | 84 | 1014.2 |
| 20260507033642 | 63 | 355 | 8.0 | 16.0 | 0.00 | 0.00 | 0.00 | 84 | 1014.2 |
| 20260507033144 | 63 | 348 | 11.0 | 16.0 | 0.00 | 0.00 | 0.00 | 84 | 1014.2 |
| 20260507032655 | 63 | 355 | 6.0 | 20.0 | 0.00 | 0.00 | 0.00 | 84 | 1014.2 |
| 20260507032137 | 63 | 355 | 10.0 | 20.0 | 0.00 | 0.00 | 0.00 | 84 | 1013.7 |
| 20260507031647 | 63 | 52 | 10.0 | 15.0 | 0.00 | 0.00 | 0.00 | 84 | 1014.0 |
| 20260507031155 | 63 | 355 | 6.0 | 14.0 | 0.00 | 0.00 | 0.00 | 84 | 1014.2 |
| 20260507030642 | 63 | 21 | 9.0 | 14.0 | 0.00 | 0.00 | 0.00 | 84 | 1014.3 |
| 20260507030155 | 63 | 360 | 7.0 | 18.0 | 0.00 | 0.00 | 0.00 | 84 | 1014.3 |
| 20260507025636 | 63 | 351 | 5.0 | 18.0 | 0.00 | 0.00 | 0.00 | 84 | 1014.1 |
| 20260507025216 | 63 | 346 | 8.0 | 19.0 | 0.00 | 0.00 | 0.00 | 84 | 1014.2 |
| 20260507024657 | 63 | 338 | 7.0 | 15.0 | 0.00 | 0.00 | 0.00 | 84 | 1014.1 |
| 20260507024140 | 63 | 5 | 6.0 | 14.0 | 0.00 | 0.00 | 0.00 | 84 | 1014.1 |
| 20260507023653 | 63 | 355 | 6.0 | 14.0 | 0.00 | 0.00 | 0.00 | 84 | 1014.1 |
| 20260507023133 | 63 | 326 | 8.0 | 14.0 | 0.00 | 0.00 | 0.00 | 84 | 1014.0 |
| 20260507022645 | 63 | 344 | 6.0 | 15.0 | 0.00 | 0.00 | 0.00 | 84 | 1014.2 |
| 20260507022218 | 63 | 360 | 6.0 | 15.0 | 0.00 | 0.00 | 0.00 | 84 | 1014.1 |
| 20260507021639 | 63 | 26 | 6.0 | 14.0 | 0.00 | 0.00 | 0.00 | 84 | 1014.0 |
| 20260507021150 | 63 | 22 | 7.0 | 16.0 | 0.00 | 0.00 | 0.00 | 84 | 1013.7 |
| 20260507020632 | 63 | 5 | 10.0 | 20.0 | 0.00 | 0.00 | 0.00 | 84 | 1013.4 |
| 20260507020139 | 63 | 355 | 10.0 | 20.0 | 0.00 | 0.00 | 0.00 | 83 | 1012.9 |
| 20260507015641 | 63 | 355 | 8.0 | 15.0 | 0.00 | 0.00 | 0.00 | 83 | 1012.9 |
| 20260507015131 | 63 | 326 | 8.0 | 19.0 | 0.00 | 0.00 | 0.00 | 83 | 1013.2 |
| 20260507014633 | 63 | 13 | 10.0 | 19.0 | 0.00 | 0.00 | 0.00 | 83 | 1013.2 |
| 20260507014144 | 63 | 336 | 8.0 | 16.0 | 0.00 | 0.00 | 0.00 | 83 | 1013.1 |
| 20260507013656 | 64 | 350 | 9.0 | 16.0 | 0.00 | 0.00 | 0.00 | 83 | 1013.2 |
| 20260507013138 | 64 | 344 | 5.0 | 13.0 | 0.00 | 0.00 | 0.00 | 83 | 1013.2 |
| 20260507012651 | 64 | 355 | 4.0 | 16.0 | 0.00 | 0.00 | 0.00 | 82 | 1013.2 |
| 20260507012129 | 64 | 32 | 6.0 | 16.0 | 0.00 | 0.00 | 0.00 | 82 | 1013.1 |
| 20260507011641 | 64 | 18 | 9.0 | 15.0 | 0.00 | 0.00 | 0.00 | 82 | 1012.6 |
| 20260507011209 | 64 | 332 | 7.0 | 18.0 | 0.00 | 0.00 | 0.00 | 82 | 1012.7 |
| 20260507010629 | 64 | 338 | 10.0 | 19.0 | 0.00 | 0.00 | 0.00 | 82 | 1012.4 |
| 20260507010138 | 64 | 360 | 6.0 | 19.0 | 0.00 | 0.00 | 0.00 | 81 | 1012.4 |
| 20260507005649 | 64 | 30 | 5.0 | 16.0 | 0.00 | 0.00 | 0.00 | 81 | 1012.4 |
| 20260507005148 | 64 | 325 | 9.0 | 16.0 | 0.00 | 0.00 | 0.00 | 81 | 1012.3 |
| 20260507004659 | 65 | 11 | 9.0 | 16.0 | 0.00 | 0.00 | 0.00 | 81 | 1012.3 |
| 20260507004148 | 65 | 9 | 7.0 | 16.0 | 0.00 | 0.00 | 0.00 | 81 | 1012.5 |
| 20260507003631 | 65 | 350 | 7.0 | 20.0 | 0.00 | 0.00 | 0.00 | 81 | 1012.6 |
| 20260507003143 | 65 | 343 | 9.0 | 20.0 | 0.00 | 0.00 | 0.00 | 80 | 1012.4 |
| 20260507002647 | 65 | 31 | 8.0 | 15.0 | 0.00 | 0.00 | 0.00 | 80 | 1012.3 |
| 20260507002200 | 65 | 10 | 10.0 | 15.0 | 0.00 | 0.00 | 0.00 | 80 | 1012.2 |
| 20260507001650 | 66 | 28 | 7.0 | 18.0 | 0.00 | 0.00 | 0.00 | 80 | 1012.2 |
| 20260507001200 | 66 | 18 | 7.0 | 18.0 | 0.00 | 0.00 | 0.00 | 79 | 1012.2 |
| 20260507000642 | 66 | 9 | 8.0 | 18.0 | 0.00 | 0.00 | 0.00 | 79 | 1012.2 |
| 20260507000148 | 67 | 355 | 6.0 | 16.0 | 0.00 | 0.00 | 0.00 | 79 | 1011.9 |
| 20260506235633 | 67 | 355 | 5.0 | 16.0 | 0.00 | 0.00 | 0.00 | 78 | 1012.0 |
| 20260506235148 | 67 | 5 | 5.0 | 16.0 | 0.00 | 0.00 | 0.00 | 78 | 1012.0 |
| 20260506234639 | 67 | 9 | 6.0 | 19.0 | 0.00 | 0.00 | 0.00 | 78 | 1012.0 |
| 20260506234148 | 67 | 5 | 8.0 | 19.0 | 0.00 | 0.00 | 0.00 | 77 | 1011.6 |
| 20260506233649 | 68 | 12 | 5.0 | 21.0 | 0.00 | 0.00 | 0.00 | 77 | 1011.5 |
| 20260506233139 | 68 | 360 | 11.0 | 21.0 | 0.00 | 0.00 | 0.00 | 76 | 1011.4 |
| 20260506232641 | 69 | 351 | 9.0 | 16.0 | 0.00 | 0.00 | 0.00 | 75 | 1011.6 |
| 20260506232131 | 69 | 300 | 6.0 | 15.0 | 0.00 | 0.00 | 0.00 | 76 | 1011.5 |
| 20260506231644 | 69 | 349 | 8.0 | 15.0 | 0.00 | 0.00 | 0.00 | 75 | 1011.6 |
| 20260506231147 | 69 | 5 | 6.0 | 20.0 | 0.00 | 0.00 | 0.00 | 76 | 1011.4 |
| 20260506230657 | 70 | 350 | 8.0 | 18.0 | 0.00 | 0.00 | 0.00 | 74 | 1011.4 |
| 20260506230148 | 71 | 337 | 9.0 | 21.0 | 0.00 | 0.00 | 0.00 | 74 | 1011.2 |
| 20260506225633 | 71 | 10 | 6.0 | 21.0 | 0.00 | 0.00 | 0.00 | 74 | 1011.1 |
| 20260506225139 | 71 | 329 | 7.0 | 22.0 | 0.00 | 0.00 | 0.00 | 73 | 1011.1 |
| 20260506224644 | 72 | 5 | 11.0 | 23.0 | 0.00 | 0.00 | 0.00 | 71 | 1011.2 |
| 20260506224135 | 73 | 5 | 7.0 | 21.0 | 0.00 | 0.00 | 0.00 | 71 | 1011.1 |
| 20260506223633 | 73 | 36 | 8.0 | 20.0 | 0.00 | 0.00 | 0.00 | 72 | 1011.0 |
| 20260506223142 | 74 | 355 | 8.0 | 20.0 | 0.00 | 0.00 | 0.00 | 71 | 1010.9 |
| 20260506222655 | 75 | 338 | 7.0 | 16.0 | 0.00 | 0.00 | 0.00 | 71 | 1010.8 |
| 20260506222136 | 75 | 19 | 9.0 | 19.0 | 0.00 | 0.00 | 0.00 | 70 | 1010.6 |
| 20260506221705 | 75 | 5 | 10.0 | 19.0 | 0.00 | 0.00 | 0.00 | 71 | 1010.6 |
| 20260506221220 | 76 | 12 | 9.0 | 20.0 | 0.00 | 0.00 | 0.00 | 70 | 1010.6 |
| 20260506220639 | 76 | 22 | 10.0 | 20.0 | 0.00 | 0.00 | 0.00 | 70 | 1010.6 |
| 20260506220152 | 76 | 325 | 8.0 | 20.0 | 0.00 | 0.00 | 0.00 | 71 | 1010.5 |
| 20260506215639 | 76 | 360 | 12.0 | 20.0 | 0.00 | 0.00 | 0.00 | 70 | 1010.4 |
| 20260506215151 | 77 | 355 | 12.0 | 19.0 | 0.00 | 0.00 | 0.00 | 70 | 1010.6 |
| 20260506214634 | 77 | 336 | 10.0 | 19.0 | 0.00 | 0.00 | 0.00 | 72 | 1010.6 |
| 20260506214147 | 77 | 31 | 7.0 | 16.0 | 0.00 | 0.00 | 0.00 | 71 | 1010.7 |
| 20260506213720 | 78 | 18 | 8.0 | 16.0 | 0.00 | 0.00 | 0.00 | 71 | 1010.6 |
| 20260506213157 | 78 | 11 | 8.0 | 19.0 | 0.00 | 0.00 | 0.00 | 71 | 1010.6 |
| 20260506212627 | 78 | 40 | 9.0 | 19.0 | 0.00 | 0.00 | 0.00 | 72 | 1010.4 |
| 20260506212138 | 78 | 345 | 9.0 | 19.0 | 0.00 | 0.00 | 0.00 | 71 | 1010.3 |
| 20260506211640 | 78 | 35 | 10.0 | 18.0 | 0.00 | 0.00 | 0.00 | 73 | 1010.3 |
| 20260506211150 | 77 | 32 | 6.0 | 19.0 | 0.00 | 0.00 | 0.00 | 74 | 1010.4 |
| 20260506210703 | 78 | 49 | 9.0 | 16.0 | 0.00 | 0.00 | 0.00 | 73 | 1010.5 |
| 20260506210144 | 78 | 55 | 7.0 | 15.0 | 0.00 | 0.00 | 0.00 | 74 | 1010.6 |
| 20260506205656 | 78 | 59 | 9.0 | 15.0 | 0.00 | 0.00 | 0.00 | 73 | 1010.3 |
| 20260506205146 | 77 | 355 | 10.0 | 15.0 | 0.00 | 0.00 | 0.00 | 76 | 1010.3 |
| 20260506204717 | 76 | 22 | 9.0 | 16.0 | 0.00 | 0.00 | 0.00 | 76 | 1010.5 |
| 20260506204157 | 77 | 5 | 6.0 | 19.0 | 0.00 | 0.00 | 0.00 | 76 | 1010.6 |
| 20260506203648 | 77 | 23 | 8.0 | 20.0 | 0.00 | 0.00 | 0.00 | 75 | 1010.5 |
| 20260506203159 | 78 | 5 | 8.0 | 20.0 | 0.00 | 0.00 | 0.00 | 73 | 1010.5 |
| 20260506202656 | 80 | 30 | 10.0 | 15.0 | 0.00 | 0.00 | 0.00 | 71 | 1010.6 |
| 20260506202126 | 82 | 327 | 3.0 | 13.0 | 0.00 | 0.00 | 0.00 | 76 | 1010.5 |
| 20260506201629 | 82 | 58 | 1.0 | 7.0 | 0.00 | 0.00 | 0.00 | 76 | 1010.3 |
| 20260506201140 | 82 | 53 | 3.0 | 8.0 | 0.00 | 0.00 | 0.00 | 75 | 1010.4 |
| 20260506200651 | 82 | 56 | 4.0 | 8.0 | 0.00 | 0.00 | 0.00 | 73 | 1010.6 |
| 20260506200158 | 83 | 355 | 1.0 | 5.0 | 0.00 | 0.00 | 0.00 | 72 | 1010.6 |
| 20260506195659 | 83 | 66 | 0.0 | 0.0 | 0.00 | 0.00 | 0.00 | 73 | 1010.4 |
| 20260506195150 | 82 | 70 | 0.0 | 2.0 | 0.00 | 0.00 | 0.00 | 72 | 1010.5 |
| 20260506194632 | 82 | 70 | 0.0 | 6.0 | 0.00 | 0.00 | 0.00 | 74 | 1010.4 |
| 20260506194143 | 82 | 71 | 2.0 | 6.0 | 0.00 | 0.00 | 0.00 | 73 | 1010.3 |
| 20260506193652 | 82 | 34 | 0.0 | 4.0 | 0.00 | 0.00 | 0.00 | 72 | 1010.3 |
| 20260506193131 | 82 | 90 | 0.0 | 8.0 | 0.00 | 0.00 | 0.00 | 72 | 1010.3 |
| 20260506192643 | 83 | 60 | 4.0 | 8.0 | 0.00 | 0.00 | 0.00 | 71 | 1010.3 |
| 20260506192152 | 83 | 46 | 0.0 | 6.0 | 0.00 | 0.00 | 0.00 | 72 | 1010.4 |
| 20260506191635 | 82 | 40 | 1.0 | 6.0 | 0.00 | 0.00 | 0.00 | 73 | 1010.6 |
| 20260506191141 | 82 | 34 | 0.0 | 6.0 | 0.00 | 0.00 | 0.00 | 73 | 1010.5 |
| 20260506190639 | 82 | 63 | 3.0 | 6.0 | 0.00 | 0.00 | 0.00 | 74 | 1010.7 |
| 20260506190151 | 83 | 18 | 2.0 | 6.0 | 0.00 | 0.00 | 0.00 | 74 | 1010.6 |
| 20260506185638 | 81 | 55 | 3.0 | 6.0 | 0.00 | 0.00 | 0.00 | 75 | 1010.7 |
| 20260506185141 | 81 | 65 | 3.0 | 8.0 | 0.00 | 0.00 | 0.00 | 76 | 1010.8 |
| 20260506184634 | 81 | 94 | 3.0 | 8.0 | 0.00 | 0.00 | 0.00 | 77 | 1010.8 |
| 20260506184149 | 81 | 130 | 1.0 | 5.0 | 0.00 | 0.00 | 0.00 | 76 | 1010.8 |
| 20260506183631 | 81 | 80 | 0.0 | 7.0 | 0.00 | 0.00 | 0.00 | 74 | 1010.8 |
| 20260506183156 | 81 | 71 | 3.0 | 7.0 | 0.00 | 0.00 | 0.00 | 75 | 1011.0 |
| 20260506182639 | 81 | 83 | 5.0 | 7.0 | 0.00 | 0.00 | 0.00 | 77 | 1011.1 |
| 20260506182150 | 81 | 147 | 5.0 | 9.0 | 0.00 | 0.00 | 0.00 | 76 | 1011.0 |
| 20260506181632 | 81 | 115 | 6.0 | 9.0 | 0.00 | 0.00 | 0.00 | 76 | 1011.0 |
| 20260506181126 | 80 | 82 | 2.0 | 9.0 | 0.00 | 0.00 | 0.00 | 76 | 1011.0 |
| 20260506180632 | 80 | 68 | 3.0 | 9.0 | 0.00 | 0.00 | 0.00 | 78 | 1011.1 |
| 20260506180143 | 80 | 105 | 3.0 | 8.0 | 0.00 | 0.00 | 0.00 | 79 | 1011.2 |
| 20260506175653 | 80 | 85 | 5.0 | 8.0 | 0.00 | 0.00 | 0.00 | 78 | 1011.2 |
| 20260506175134 | 79 | 29 | 1.0 | 6.0 | 0.00 | 0.00 | 0.00 | 81 | 1011.2 |
| 20260506174648 | 78 | 115 | 3.0 | 9.0 | 0.00 | 0.00 | 0.00 | 82 | 1011.2 |
| 20260506174213 | 77 | 102 | 4.0 | 10.0 | 0.00 | 0.00 | 0.00 | 82 | 1011.3 |
| 20260506173631 | 77 | 65 | 7.0 | 11.0 | 0.00 | 0.00 | 0.00 | 80 | 1011.4 |
| 20260506173142 | 78 | 5 | 4.0 | 11.0 | 0.00 | 0.00 | 0.00 | 81 | 1011.5 |
| 20260506172626 | 78 | 355 | 2.0 | 11.0 | 0.00 | 0.00 | 0.00 | 82 | 1011.7 |
| 20260506172156 | 78 | 52 | 5.0 | 10.0 | 0.00 | 0.00 | 0.00 | 82 | 1011.6 |
| 20260506171646 | 78 | 51 | 4.0 | 10.0 | 0.00 | 0.00 | 0.00 | 82 | 1011.7 |
| 20260506171155 | 78 | 31 | 4.0 | 10.0 | 0.00 | 0.00 | 0.00 | 83 | 1011.7 |
| 20260506170658 | 78 | 53 | 4.0 | 10.0 | 0.00 | 0.00 | 0.00 | 83 | 1011.7 |
| 20260506170148 | 78 | 65 | 5.0 | 9.0 | 0.00 | 0.00 | 0.00 | 83 | 1011.5 |
| 20260506165631 | 78 | 34 | 5.0 | 9.0 | 0.00 | 0.00 | 0.00 | 84 | 1011.6 |
| 20260506165141 | 78 | 42 | 3.0 | 9.0 | 0.00 | 0.00 | 0.00 | 84 | 1011.6 |
| 20260506164715 | 78 | 123 | 3.0 | 9.0 | 0.00 | 0.00 | 0.00 | 83 | 1011.7 |